Regional Weather Roundup
Issued by NWS

Home | Current Version | Previous Version | Graphics & Text | Print | Product List | Glossary On
Versions: 1 2 3 4 5 6 7 8 9 10 11 12 13 14 15 16 17 18 19 20 21 22 23 24 25 26 27 28 29 30 31 32 33 34 35 36 37 38 39 40 41 42 43 44 45 46 47 48 49 50
000
ASUS45 KABQ 220501
RWRNM
NEW MEXICO REGIONAL WEATHER ROUNDUP
NATIONAL WEATHER SERVICE ALBUQUERQUE NM
1100 PM MDT THU MAY 21 2015

NOTE: "FAIR" MEANS FEW OR NO CLOUDS BELOW 12,000 FEET AGL WITH NO
       SIGNIFICANT WEATHER OR OBSTRUCTIONS TO VISION.

      THIS PRODUCT IS RELEASED AS TWO VERSIONS.  ONE VERSION NEAR
      THE TOP OF THE HOUR CONTAINING PRELIMINARY DATA FROM ALBUQUERQUE
      AND OTHER STATIONS.  A FINAL VERSION WITH ADDITIONAL DATA IS
      ISSUED ABOUT 10 MINUTES AFTER THE HOUR.

NMZ501-503-504-510>518-220600-
NORTHWEST PLATEAU/NORTHCENTRAL MOUNTAINS

CITY           SKY/WX    TMP DP  RH WIND       PRES   REMARKS
FARMINGTON     CLOUDY    56  41  57 E15       30.00R
SANTA FE       CLOUDY    46  40  79 S12       30.11R
TAOS           CLOUDY    45  36  70 NE6       30.11F

$$
NMZ402-403-502-505>509-220600-
WESTCENTRAL MOUNTAINS/SOUTHWEST MOUNTAINS

CITY           SKY/WX    TMP DP  RH WIND       PRES   REMARKS
GALLUP         PTCLDY    54  26  34 SW8       30.03R
GRANTS         CLOUDY    46  44  93 S13       30.11R
SILVER CITY      N/A     57  18  21 W5        30.07R

$$
NMZ407-409-411-412-220600-
SOUTHERN DESERTS

CITY           SKY/WX    TMP DP  RH WIND       PRES   REMARKS
LORDSBURG      FAIR      63  19  19 S8        29.99R
DEMING         CLEAR     59  25  27 S5        30.02R
HOLLOMAN AFB   CLEAR     55  53  91 N9        30.04R
ALAMOGORDO     CLEAR     55  50  82 NW10      30.05R
T OR C         CLEAR     53  50  89 NE8       30.03R

$$
NMZ519>523-220600-
CENTRAL VALLEYS/CENTRAL HIGHLANDS

CITY           SKY/WX    TMP DP  RH WIND       PRES   REMARKS
ALBUQUERQUE    PTCLDY    51  42  71 E8        30.09R
DOUBLE EAGLE   PTCLDY    46  43  90 CALM      30.11R THUNDER
MORIARTY ARPT  FAIR      42  39  88 S9        30.15S
CLINES CORNERS FOG       40  39  97 E14       30.13F VSB 1/2 WCI  32
BELEN          FAIR      50  43  77 S15       30.07R
SOCORRO        NOT AVBL

$$
NMZ524>526-539-540-220600-
SOUTHCENTRAL MOUNTAINS

CITY           SKY/WX    TMP DP  RH WIND       PRES   REMARKS
RUIDOSO        NOT AVBL

$$
NMZ527>531-220600-
NORTHEAST HIGHLANDS/NORTHEAST PLAINS

CITY           SKY/WX    TMP DP  RH WIND       PRES   REMARKS
LAS VEGAS      CLOUDY    40  39  97 E8        30.17F WCI  34
RATON          NOT AVBL
CLAYTON        LGT RAIN  47  46  97 S15       30.18S

$$
NMZ532>537-220600-
EASTCENTRAL PLAINS

CITY           SKY/WX    TMP DP  RH WIND       PRES   REMARKS
CANNON AFB     NOT AVBL
CLOVIS AIRPORT CLOUDY    48  46  93 W10       30.23R THUNDER

$$
NMZ028-029-538-220600-
SOUTHEAST PLAINS

CITY           SKY/WX    TMP DP  RH WIND       PRES   REMARKS
ROSWELL        TSTM      52  50  93 E7        30.14R
ARTESIA        CLOUDY    52  52 100 E6        30.16F
CARLSBAD       HVY RAIN  54  52  93 NE7       30.12F FOG
HOBBS          LGT RAIN  50  50 100 CALM      30.20R


$$



USA.gov is the U.S. government's official web portal to all federal, state and local government web resources and services.